[[{"header":{"parameterUnit":"m.s-1","parameterCategory":1,"la1":30.2991,"la2":30.254,"lo1":-89.0895,"lo2":-89.0444,"dy":0.0017,"dx":0.0017,"nx":28,"ny":28,"refTime":"2024-05-27T21:00:00:Z","depth":0,"parameterNumber":2,"parameterNumberName":"U-component_of_WINDS"},"data":[0,0,0,0,0,0,0,0,0,0,0,0,0,0,0,0,0,0,0,0,0,0,0,0,0,0,0,0,0,0,0,0,0,0,0,0,0,0,0,0,0,0,0,0,0,0,0,0,0,0,0,0,0,0,0,0,0,0,2.8992,2.8992,0,2.9073,2.9074,2.9075,2.8996,2.8992,2.8989,2.8986,2.9071,2.9076,2.9082,0,0,0,0,0,0,0,0,0,0,0,0,0,2.8768,2.8772,2.8991,2.8992,2.8993,2.9073,2.9074,2.9075,2.8996,2.8992,2.8988,2.8985,2.907,2.9076,2.9082,0,0,0,0,0,0,0,0,0,0,0,0,0,2.8859,2.8774,2.8991,2.8964,2.8962,2.9073,2.9074,2.9076,2.8997,2.8992,2.8987,2.8983,2.9068,2.9075,2.9083,2.9226,0,0,2.9107,2.911,0,0,0,0,0,0,0,0,2.8854,2.8867,2.8967,2.8966,2.8964,2.9019,2.9026,2.9126,2.8998,2.8984,2.8986,2.8981,2.9058,2.9066,2.9092,2.923,2.9233,2.9108,2.9112,2.9116,2.9118,0,0,0,0,0,0,0,2.8848,2.8863,2.9024,2.8968,2.8967,2.8947,2.8955,2.9045,2.9046,2.8985,2.8979,2.899,2.9056,2.9085,2.9093,2.9235,2.9107,2.9114,2.9119,2.9122,2.9493,2.9498,0,0,0,0,0,0,2.8844,2.8858,2.9021,2.9026,2.8896,2.8955,2.8964,2.9006,2.9045,2.9047,2.8994,2.8986,2.9074,2.9084,2.9096,2.9265,2.9116,2.9123,2.9127,2.9488,2.9494,2.95,0,0,0,0,0,0,2.884,2.8859,2.9018,2.8941,2.896,2.8964,2.9013,2.901,2.9039,2.9052,2.9052,2.9022,2.907,2.9085,2.9194,2.9267,2.9126,2.9133,2.9482,2.949,2.9497,2.9606,0,0,0,0,0,0,2.8834,2.8858,2.8912,2.8943,2.8964,2.9114,2.9017,2.9015,2.9052,2.9043,2.9079,2.908,2.9068,2.9183,2.9202,2.9276,2.914,2.9476,2.9486,2.9495,2.9596,2.9616,2.9634,0,0,0,0,0,2.8826,2.894,2.8916,2.8936,2.9032,2.9119,2.9131,2.9114,2.9058,2.9113,2.9121,2.9079,2.9256,2.9195,2.9215,2.9293,2.9471,2.9483,2.9494,2.9587,2.9612,2.9634,0,0,0,0,0,0,2.8919,2.8944,2.8917,2.9044,2.908,2.9105,2.9173,2.9141,2.9194,2.9183,2.9159,2.9168,2.9283,2.9299,2.923,2.9433,2.9355,2.9371,2.9418,2.9442,2.9461,2.9455,2.9146,0,0,0,0,0,2.8954,2.9022,2.904,2.9151,2.917,2.9169,2.9206,2.919,2.9226,2.9241,2.9258,2.9295,2.9359,2.9401,2.9461,2.9598,2.9604,2.9661,2.968,2.9696,2.971,2.9783,2.9808,2.9538,2.9538,2.9538,0,0,2.9028,2.905,2.9094,2.917,2.9196,2.9268,2.9182,2.9262,2.9314,2.9253,2.9357,2.937,2.941,2.9534,2.9589,2.955,2.9786,2.9711,2.9723,2.9729,2.9798,2.9823,2.9846,2.9546,2.9545,2.9544,0,0,2.9198,2.9222,2.9317,2.9344,2.9384,2.9382,2.9405,2.9436,2.9442,2.9545,2.9501,2.9564,2.9674,2.9705,2.9734,2.9917,2.988,2.9937,3.0037,3.0108,3.0129,3.0148,3.0213,3.0236,2.9951,2.9951,2.9952,0,2.9285,2.939,2.9369,2.9452,2.9487,2.9434,2.953,2.9558,2.9616,2.9641,2.9596,2.9734,2.9757,2.9887,2.9931,2.9957,2.9982,2.9932,3.0128,3.0147,3.0164,3.0225,3.0249,2.9958,2.9957,2.9957,2.9956,0,2.9495,2.9569,2.964,2.9697,2.974,2.9828,2.9821,2.9867,2.9847,2.985,2.9956,2.9982,3.0046,3.0075,3.0057,3.0203,3.0177,3.0131,3.0052,3.0197,3.0254,3.0277,2.9968,2.9965,2.9963,2.9961,0,0,2.9726,2.977,2.9796,2.9821,2.9861,2.9918,3.0005,3.0066,3.0106,3.0148,3.022,3.0314,3.0272,3.0306,3.029,3.0353,3.0495,3.0299,3.03,3.0334,3.0657,3.0691,3.0718,3.0471,3.0476,3.0479,3.0653,0,2.9898,3.0047,3.003,3.0173,3.0241,3.0192,3.0267,3.03,3.0306,3.0364,3.037,3.0438,3.0376,3.0397,3.0457,3.0465,3.056,3.0453,3.0538,3.0541,3.0529,3.0748,3.0785,3.0948,3.0675,3.0679,3.0682,0,3.0117,3.0166,3.0316,3.0345,3.0373,3.0441,3.0496,3.0553,3.0589,3.0588,3.0627,3.06,3.0687,3.0607,3.0726,3.0654,3.0687,3.0697,3.0703,3.071,3.062,3.0761,3.0999,3.1024,3.0717,3.0714,3.0712,0,3.0271,3.0374,3.0476,3.0499,3.0536,3.0585,3.0603,3.0634,3.0673,3.0721,3.0746,3.0804,3.0836,3.0882,3.0872,3.0814,3.0994,3.0913,3.0996,3.0996,3.1035,3.1033,3.1282,3.1058,3.1058,3.1058,3.1057,0,3.0463,3.0557,3.0545,3.0609,3.0711,3.0692,3.0794,3.0806,3.0835,3.0899,3.0861,3.0923,3.0906,3.0967,3.096,3.1059,3.1074,3.1076,3.1073,3.108,3.1079,3.1101,3.1089,3.1064,3.1063,3.1061,3.106,0,3.0652,3.0648,3.0757,3.0783,3.0791,3.0866,3.0888,3.0948,3.095,3.1032,3.105,3.1054,3.1124,3.1118,3.1197,3.1192,3.1315,3.1299,3.1303,3.1299,3.1382,3.1375,3.1654,3.169,3.1443,3.1446,3.1448,0,3.0775,3.0845,3.0879,3.0919,3.094,3.1005,3.1044,3.1028,3.1069,3.1116,3.117,3.1236,3.1288,3.1402,3.1411,3.1471,3.1456,3.155,3.1465,3.1469,3.1457,3.1453,3.1459,3.1567,3.1569,3.1572,3.1573,0,3.0994,3.0988,3.1045,3.1102,3.1148,3.1192,3.1232,3.1267,3.1255,3.1304,3.1374,3.1415,3.1494,3.1561,3.1618,3.1636,3.1603,3.16,3.1622,3.1629,3.1628,3.1629,3.1348,3.1594,3.1592,3.159,3.1589,3.1588,3.1153,3.1213,3.1246,3.131,3.1338,3.1376,3.1433,3.1442,3.1501,3.1564,3.1551,3.163,3.1665,3.1738,3.1762,3.1824,3.179,3.1822,3.183,3.1839,3.1848,3.1619,3.1834,3.1833,3.1833,3.1832,3.1832,0,3.1369,3.1387,3.1447,3.1504,3.1554,3.1518,3.1561,3.1606,3.1676,3.171,3.1762,3.1843,3.1907,3.1922,3.1983,3.203,3.2016,3.2046,3.2042,3.2047,3.1875,3.1849,3.2056,3.2056,3.2056,3.2056,3.2056,3.2056,3.1487,3.1587,3.1585,3.1699,3.1716,3.1793,3.182,3.1855,3.1883,3.1975,3.2027,3.2036,3.2063,3.2126,3.2183,3.2186,3.221,3.2246,3.2243,3.2082,3.2059,3.2038,3.2013,3.2252,3.2252,3.241,3.2411,3.2412]},{"header":{"parameterUnit":"m.s-1","parameterCategory":1,"la1":30.2991,"la2":30.254,"lo1":-89.0895,"lo2":-89.0444,"dy":0.0017,"dx":0.0017,"nx":28,"ny":28,"refTime":"2024-05-27T21:00:00:Z","depth":0,"parameterNumber":3,"parameterNumberName":"V-component_of_WINDS"},"data":[0,0,0,0,0,0,0,0,0,0,0,0,0,0,0,0,0,0,0,0,0,0,0,0,0,0,0,0,0,0,0,0,0,0,0,0,0,0,0,0,0,0,0,0,0,0,0,0,0,0,0,0,0,0,0,0,0,0,0.8836,0.8836,0,0.884,0.884,0.884,0.8822,0.8822,0.8821,0.8821,0.8826,0.8826,0.8827,0,0,0,0,0,0,0,0,0,0,0,0,0,0.8812,0.8812,0.8836,0.8836,0.8836,0.884,0.884,0.884,0.8822,0.8822,0.8821,0.882,0.8825,0.8826,0.8827,0,0,0,0,0,0,0,0,0,0,0,0,0,0.882,0.8812,0.8836,0.8827,0.8827,0.884,0.884,0.884,0.8822,0.8822,0.8821,0.882,0.8825,0.8826,0.8827,0.8849,0,0,0.883,0.883,0,0,0,0,0,0,0,0,0.8819,0.8821,0.8829,0.8828,0.8827,0.883,0.8833,0.8843,0.8823,0.8824,0.8821,0.882,0.8828,0.8828,0.8831,0.8849,0.8849,0.883,0.8831,0.8831,0.8831,0,0,0,0,0,0,0,0.8819,0.882,0.8837,0.8829,0.8828,0.8823,0.8824,0.8835,0.883,0.8824,0.8823,0.8823,0.8827,0.883,0.8831,0.8849,0.883,0.8831,0.8831,0.8832,0.8884,0.8885,0,0,0,0,0,0,0.8819,0.882,0.8837,0.8837,0.8821,0.8824,0.8825,0.883,0.883,0.8829,0.8824,0.8823,0.8829,0.883,0.8831,0.8856,0.8831,0.8832,0.8832,0.8883,0.8884,0.8885,0,0,0,0,0,0,0.8819,0.8821,0.8837,0.8828,0.883,0.8826,0.8831,0.883,0.8833,0.883,0.8829,0.8828,0.8828,0.883,0.8844,0.8856,0.8832,0.8833,0.8882,0.8883,0.8884,0.8906,0,0,0,0,0,0,0.8818,0.8821,0.8829,0.8829,0.8831,0.885,0.8832,0.8831,0.8835,0.8833,0.8834,0.8833,0.8828,0.8843,0.8845,0.8857,0.8834,0.8881,0.8883,0.8884,0.8904,0.8907,0.891,0,0,0,0,0,0.8817,0.8835,0.883,0.8832,0.8841,0.8851,0.8852,0.8846,0.8836,0.8844,0.8842,0.8833,0.8854,0.8844,0.8847,0.8859,0.888,0.8882,0.8884,0.8902,0.8907,0.891,0,0,0,0,0,0,0.8838,0.8835,0.8829,0.8847,0.8849,0.8848,0.8858,0.8851,0.8856,0.8854,0.8846,0.8846,0.8862,0.8862,0.8851,0.8879,0.8865,0.8868,0.8879,0.8883,0.8886,0.8886,0.8835,0,0,0,0,0,0.8845,0.8853,0.885,0.8867,0.8868,0.8863,0.8867,0.8862,0.8864,0.8865,0.8864,0.8866,0.8873,0.8878,0.8884,0.8904,0.8903,0.8913,0.8916,0.8919,0.8921,0.8931,0.8935,0.8891,0.8891,0.8891,0,0,0.8859,0.8858,0.8864,0.8871,0.8872,0.888,0.8864,0.8874,0.888,0.8866,0.888,0.8879,0.8881,0.8898,0.8905,0.8898,0.8933,0.8921,0.8923,0.8924,0.8933,0.8937,0.8941,0.8892,0.8892,0.8892,0,0,0.8888,0.8889,0.8902,0.8903,0.8905,0.8901,0.8904,0.8904,0.8903,0.8916,0.8905,0.8912,0.8925,0.8926,0.8929,0.8957,0.8949,0.896,0.8977,0.8986,0.899,0.8993,0.9003,0.9006,0.8962,0.8962,0.8962,0,0.8906,0.8918,0.891,0.8921,0.8924,0.8911,0.8924,0.8925,0.8929,0.8931,0.8923,0.8938,0.8938,0.8955,0.8962,0.8964,0.8968,0.896,0.899,0.8993,0.8996,0.9005,0.9009,0.8963,0.8963,0.8963,0.8963,0,0.8939,0.8948,0.8958,0.8961,0.8966,0.8978,0.8971,0.8976,0.897,0.8967,0.898,0.898,0.8986,0.8989,0.8984,0.9005,0.9,0.8991,0.8978,0.9001,0.901,0.9013,0.8965,0.8965,0.8964,0.8964,0,0,0.8983,0.898,0.8984,0.8985,0.8985,0.8992,0.9003,0.9008,0.9012,0.9015,0.9023,0.9034,0.9025,0.9028,0.9022,0.903,0.9052,0.902,0.902,0.9026,0.9075,0.9082,0.9086,0.9047,0.9047,0.9048,0.9075,0,0.9012,0.903,0.9023,0.9042,0.9049,0.9036,0.9046,0.9047,0.9044,0.905,0.9047,0.9054,0.9042,0.9043,0.9051,0.9048,0.9062,0.9046,0.9055,0.9055,0.9055,0.9091,0.9098,0.9123,0.9078,0.9079,0.9079,0,0.9048,0.9051,0.9071,0.9069,0.9071,0.908,0.9084,0.9089,0.909,0.9087,0.909,0.9082,0.9092,0.9078,0.9092,0.9081,0.9084,0.9083,0.9083,0.9084,0.9069,0.9092,0.9131,0.9135,0.9084,0.9084,0.9083,0,0.9078,0.9087,0.91,0.9101,0.9099,0.9105,0.9104,0.9104,0.9107,0.911,0.9112,0.9116,0.9118,0.9122,0.9115,0.9106,0.913,0.9115,0.9128,0.9128,0.9133,0.9133,0.9173,0.9135,0.9135,0.9135,0.9135,0,0.9111,0.9123,0.9113,0.9121,0.9134,0.9125,0.9138,0.9136,0.9136,0.9143,0.9132,0.9139,0.9129,0.9135,0.913,0.9142,0.9143,0.9141,0.914,0.9142,0.9142,0.9144,0.9142,0.9136,0.9136,0.9136,0.9136,0,0.9146,0.914,0.9153,0.9149,0.9148,0.9158,0.9155,0.9162,0.9158,0.9167,0.9168,0.9162,0.9168,0.9162,0.9168,0.9164,0.918,0.9176,0.918,0.9179,0.9191,0.919,0.9234,0.9239,0.9198,0.9198,0.9199,0,0.9168,0.9177,0.9174,0.9177,0.9177,0.9183,0.9186,0.9177,0.9181,0.9181,0.9188,0.9193,0.9197,0.9207,0.9203,0.9207,0.9203,0.9218,0.9204,0.9206,0.9203,0.9203,0.9203,0.9221,0.9222,0.9222,0.9223,0,0.9206,0.9202,0.9207,0.921,0.9213,0.9216,0.9217,0.9221,0.9211,0.9216,0.9221,0.9224,0.923,0.9235,0.9238,0.9237,0.9228,0.9227,0.923,0.9233,0.9234,0.9233,0.9188,0.9226,0.9226,0.9226,0.9225,0.9225,0.9235,0.9242,0.9241,0.9246,0.9246,0.9247,0.9253,0.9249,0.9254,0.9257,0.9252,0.9259,0.9258,0.9261,0.9261,0.9266,0.926,0.9265,0.9266,0.9267,0.9269,0.9233,0.9267,0.9267,0.9267,0.9267,0.9267,0,0.9273,0.9271,0.9276,0.9278,0.9281,0.9272,0.9273,0.9277,0.9283,0.9283,0.9286,0.9293,0.9297,0.9293,0.9297,0.9302,0.9298,0.9303,0.9303,0.9302,0.9274,0.9271,0.9306,0.9306,0.9306,0.9306,0.9306,0.9306,0.9293,0.9304,0.93,0.9311,0.9309,0.9316,0.9317,0.9317,0.9317,0.9325,0.9328,0.9325,0.9323,0.9327,0.933,0.9329,0.9331,0.9337,0.9334,0.9308,0.9305,0.9301,0.9298,0.9338,0.9338,0.9362,0.9362,0.9362]}]]